GW5072 Weather Reports


Display with metric or nautical units.
time (UTC)temp
F
wind
direction
speed
MPH
gust
MPH
rain 1hr
in
rain 24hr
in
rain mn
in
humidity
%
barometer
mb
20260505053020 69 97 0.0 4.0 0.00 0.00 0.00 86 1010.9
20260505052504 69 284 0.0 3.0 0.00 0.00 0.00 86 1010.9
20260505052009 69 284 0.0 3.0 0.00 0.00 0.00 86 1010.9
20260505051533 70 108 0.0 5.0 0.00 0.00 0.00 86 1011.0
20260505051009 70 148 0.0 5.0 0.00 0.00 0.00 85 1011.0
20260505050511 70 261 0.0 5.0 0.00 0.00 0.00 85 1011.1
20260505041527 71 195 0.0 8.0 0.00 0.00 0.00 83 1011.1
20260505041007 71 257 0.0 8.0 0.00 0.00 0.00 83 1011.1
20260505040504 71 131 0.0 3.0 0.00 0.00 0.00 83 1011.0
20260505040026 71 128 0.0 5.0 0.00 0.00 0.00 82 1010.9
20260505035503 71 97 0.0 5.0 0.00 0.00 0.00 82 1011.1
20260505035008 71 121 1.0 5.0 0.00 0.00 0.00 82 1011.3
20260505034524 71 214 0.0 5.0 0.00 0.00 0.00 81 1011.2
20260505034004 72 194 0.0 3.0 0.00 0.00 0.00 81 1011.1
20260505033511 72 111 0.0 6.0 0.00 0.00 0.00 81 1011.0
20260505033024 71 117 0.0 6.0 0.00 0.00 0.00 81 1011.2
20260505032505 71 222 2.0 6.0 0.00 0.00 0.00 81 1011.4
20260505032008 72 98 0.0 3.0 0.00 0.00 0.00 81 1011.4
20260505031520 72 117 0.0 3.0 0.00 0.00 0.00 81 1011.3
20260505031007 72 123 0.0 3.0 0.00 0.00 0.00 80 1011.3
20260505030508 72 251 0.0 6.0 0.00 0.00 0.00 80 1011.3
20260505030017 72 116 0.0 6.0 0.00 0.00 0.00 79 1011.1
20260505025513 72 155 0.0 3.0 0.00 0.00 0.00 79 1011.2
20260505025008 72 134 1.0 5.0 0.00 0.00 0.00 79 1011.1
20260505024526 72 238 1.0 5.0 0.00 0.00 0.00 79 1011.0
20260505024008 73 141 0.0 6.0 0.00 0.00 0.00 79 1010.9
20260505023505 73 124 1.0 6.0 0.00 0.00 0.00 79 1011.0
20260505023026 73 84 0.0 5.0 0.00 0.00 0.00 78 1011.0
20260505022506 73 101 0.0 5.0 0.00 0.00 0.00 78 1011.0
20260505022006 73 122 1.0 3.0 0.00 0.00 0.00 78 1011.0
20260505021526 73 129 1.0 6.0 0.00 0.00 0.00 78 1010.9
20260505021004 73 191 0.0 6.0 0.00 0.00 0.00 78 1010.9
20260505020509 73 200 1.0 5.0 0.00 0.00 0.00 78 1010.9
20260505020026 73 119 0.0 3.0 0.00 0.00 0.00 79 1010.8
20260505015512 73 254 1.0 3.0 0.00 0.00 0.00 79 1010.9
20260505015008 73 164 0.0 3.0 0.00 0.00 0.00 79 1010.9
20260505014525 73 235 0.0 2.0 0.00 0.00 0.00 79 1010.8
20260505014007 72 91 0.0 0.0 0.00 0.00 0.00 80 1010.8
20260505013509 72 158 0.0 0.0 0.00 0.00 0.00 80 1010.6
20260505013024 72 155 0.0 1.0 0.00 0.00 0.00 79 1010.6
20260505012506 73 245 0.0 1.0 0.00 0.00 0.00 79 1010.6
20260505012011 73 269 0.0 2.0 0.00 0.00 0.00 79 1010.6
20260505011522 73 269 0.0 2.0 0.00 0.00 0.00 78 1010.4
20260505011011 73 221 0.0 1.0 0.00 0.00 0.00 77 1010.3
20260505010508 74 176 0.0 1.0 0.00 0.00 0.00 77 1010.4
20260505010028 74 149 0.0 2.0 0.00 0.00 0.00 76 1010.6
20260505005513 74 229 0.0 3.0 0.00 0.00 0.00 75 1010.5
20260505005006 75 91 0.0 4.0 0.00 0.00 0.00 74 1010.4
20260505004528 75 206 0.0 4.0 0.00 0.00 0.00 74 1010.4
20260505004008 75 236 0.0 3.0 0.00 0.00 0.00 74 1010.6
20260505003511 75 187 1.0 5.0 0.00 0.00 0.00 73 1010.4
20260505003025 76 127 0.0 5.0 0.00 0.00 0.00 73 1010.4
20260505002510 76 262 1.0 5.0 0.00 0.00 0.00 73 1010.4
20260505002009 76 120 0.0 4.0 0.00 0.00 0.00 73 1010.4
20260505001528 76 187 1.0 4.0 0.00 0.00 0.00 73 1010.4
20260505001002 76 117 0.0 7.0 0.00 0.00 0.00 71 1010.4
20260505000506 76 121 0.0 7.0 0.00 0.00 0.00 71 1010.5
20260505000008 77 238 0.0 7.0 0.00 0.00 0.00 71 1010.6
20260504235502 77 162 2.0 7.0 0.00 0.00 0.00 70 1010.6
20260504235006 77 220 0.0 11.0 0.00 0.00 0.00 70 1010.6
20260504234504 77 203 0.0 11.0 0.00 0.00 0.00 70 1010.6
20260504234002 78 86 1.0 6.0 0.00 0.00 0.00 69 1010.6
20260504233502 78 118 0.0 3.0 0.00 0.00 0.00 69 1010.4
20260504233003 78 179 0.0 3.0 0.00 0.00 0.00 68 1010.6
20260504232506 78 115 0.0 4.0 0.00 0.00 0.00 67 1010.7
20260504232002 78 122 1.0 4.0 0.00 0.00 0.00 66 1010.7
20260504231503 79 184 0.0 4.0 0.00 0.00 0.00 67 1010.7
20260504231005 79 109 0.0 3.0 0.00 0.00 0.00 66 1010.8
20260504230502 79 167 0.0 6.0 0.00 0.00 0.00 66 1010.9
20260504230020 79 119 1.0 6.0 0.00 0.00 0.00 65 1010.9
20260504225504 79 102 1.0 4.0 0.00 0.00 0.00 65 1011.1
20260504225001 79 104 2.0 4.0 0.00 0.00 0.00 65 1011.2
20260504224515 80 85 1.0 4.0 0.00 0.00 0.00 64 1011.0
20260504224003 80 112 1.0 5.0 0.00 0.00 0.00 64 1011.0
20260504223503 80 122 1.0 5.0 0.00 0.00 0.00 64 1011.0
20260504223013 80 103 1.0 4.0 0.00 0.00 0.00 63 1011.2
20260504222504 80 71 1.0 5.0 0.00 0.00 0.00 64 1011.1
20260504222005 80 210 0.0 5.0 0.00 0.00 0.00 63 1011.2
20260504221510 80 109 1.0 5.0 0.00 0.00 0.00 64 1011.2
20260504221002 80 218 0.0 10.0 0.00 0.00 0.00 63 1011.3
20260504220506 80 210 0.0 10.0 0.00 0.00 0.00 63 1011.5
20260504220009 80 205 0.0 6.0 0.00 0.00 0.00 62 1011.4
20260504215502 80 120 2.0 6.0 0.00 0.00 0.00 60 1011.4
20260504215007 81 136 1.0 4.0 0.00 0.00 0.00 61 1011.5
20260504214504 82 98 1.0 5.0 0.00 0.00 0.00 60 1011.5
20260504214007 82 83 2.0 5.0 0.00 0.00 0.00 61 1011.6
20260504213503 82 188 0.0 3.0 0.00 0.00 0.00 61 1011.8
20260504213004 83 102 0.0 3.0 0.00 0.00 0.00 59 1011.7
20260504212506 83 122 0.0 3.0 0.00 0.00 0.00 58 1011.8
20260504212003 83 212 0.0 6.0 0.00 0.00 0.00 59 1011.9
20260504211503 82 121 1.0 6.0 0.00 0.00 0.00 58 1011.9
20260504211006 82 259 0.0 5.0 0.00 0.00 0.00 62 1012.0
20260504210503 82 239 1.0 4.0 0.00 0.00 0.00 59 1012.2
20260504210027 82 227 1.0 5.0 0.00 0.00 0.00 59 1012.1
20260504205506 83 105 1.0 5.0 0.00 0.00 0.00 59 1012.1
20260504205004 82 115 1.0 5.0 0.00 0.00 0.00 59 1012.2
20260504204519 81 186 0.0 3.0 0.00 0.00 0.00 60 1012.4
20260504204003 80 218 0.0 5.0 0.00 0.00 0.00 60 1012.6
20260504203510 81 120 1.0 5.0 0.00 0.00 0.00 58 1012.6
20260504203021 82 89 1.0 8.0 0.00 0.00 0.00 58 1012.7
20260504202504 82 203 0.0 8.0 0.00 0.00 0.00 63 1012.8
20260504202008 81 89 2.0 6.0 0.00 0.00 0.00 60 1012.8
20260504201515 81 226 0.0 3.0 0.00 0.00 0.00 59 1013.1
20260504201005 81 263 0.0 4.0 0.00 0.00 0.00 60 1013.2
20260504200507 81 298 1.0 5.0 0.00 0.00 0.00 60 1013.3
20260504200008 81 264 1.0 5.0 0.00 0.00 0.00 58 1013.3
20260504195508 81 209 1.0 4.0 0.00 0.00 0.00 60 1013.4
20260504195009 81 294 0.0 7.0 0.00 0.00 0.00 61 1013.5
20260504194508 81 221 1.0 7.0 0.00 0.00 0.00 58 1013.6
20260504194006 81 149 2.0 7.0 0.00 0.00 0.00 60 1013.6
20260504193509 81 204 2.0 7.0 0.00 0.00 0.00 60 1013.6
20260504193012 80 162 0.0 6.0 0.00 0.00 0.00 59 1013.7
20260504192508 80 243 1.0 9.0 0.00 0.00 0.00 59 1013.8
20260504192003 81 85 2.0 9.0 0.00 0.00 0.00 59 1013.8
20260504191526 81 116 1.0 3.0 0.00 0.00 0.00 57 1013.8
20260504191006 82 115 1.0 5.0 0.00 0.00 0.00 56 1014.0
20260504190504 82 219 1.0 5.0 0.00 0.00 0.00 58 1014.1
20260504190021 82 203 1.0 4.0 0.00 0.00 0.00 57 1014.2
20260504185503 82 212 1.0 5.0 0.00 0.00 0.00 57 1014.3
20260504185007 82 274 2.0 5.0 0.00 0.00 0.00 56 1014.2
20260504184519 81 94 0.0 8.0 0.00 0.00 0.00 58 1014.2
20260504184003 81 233 1.0 8.0 0.00 0.00 0.00 59 1014.2
20260504183512 80 125 1.0 7.0 0.00 0.00 0.00 57 1014.5
20260504183017 80 122 0.0 7.0 0.00 0.00 0.00 60 1014.5
20260504182505 81 206 1.0 7.0 0.00 0.00 0.00 56 1014.6
20260504182011 81 95 1.0 7.0 0.00 0.00 0.00 58 1014.5
20260504181513 81 148 1.0 7.0 0.00 0.00 0.00 56 1014.5
20260504181008 80 264 2.0 7.0 0.00 0.00 0.00 60 1014.6
20260504180509 80 238 1.0 5.0 0.00 0.00 0.00 62 1014.7
20260504180012 79 143 1.0 6.0 0.00 0.00 0.00 63 1014.8
20260504175508 79 184 1.0 9.0 0.00 0.00 0.00 60 1014.8
20260504175004 79 167 2.0 9.0 0.00 0.00 0.00 60 1014.9
20260504174510 79 197 1.0 5.0 0.00 0.00 0.00 60 1015.1
20260504174009 79 127 1.0 5.0 0.00 0.00 0.00 59 1015.0
20260504173506 79 163 1.0 6.0 0.00 0.00 0.00 59 1015.0
20260504173026 78 143 0.0 8.0 0.00 0.00 0.00 63 1015.2
20260504172505 78 216 2.0 8.0 0.00 0.00 0.00 61 1015.3
20260504172004 78 182 1.0 5.0 0.00 0.00 0.00 61 1015.2
20260504171523 78 129 1.0 4.0 0.00 0.00 0.00 62 1015.3
20260504171009 77 75 1.0 7.0 0.00 0.00 0.00 63 1015.4
20260504170505 77 34 2.0 7.0 0.00 0.00 0.00 61 1015.5
20260504151005 71 194 1.0 7.0 0.00 0.00 0.00 71 1016.3
20260504150504 71 238 1.0 5.0 0.00 0.00 0.00 72 1016.3
20260504141003 66 185 0.0 4.0 0.00 0.00 0.00 80 1016.3
20260504140502 65 216 0.0 4.0 0.00 0.00 0.00 79 1016.3
20260504130504 58 91 0.0 0.0 0.00 0.00 0.00 92 1016.1
20260504110506 56 91 0.0 0.0 0.00 0.00 0.00 91 1015.5
20260504100510 56 91 0.0 0.0 0.00 0.00 0.00 89 1016.0
20260504082007 57 91 0.0 0.0 0.00 0.00 0.00 87 1016.5
20260504081519 57 91 0.0 0.0 0.00 0.00 0.00 87 1016.6
20260504081002 58 91 0.0 0.0 0.00 0.00 0.00 86 1016.5
20260504080506 58 91 0.0 0.0 0.00 0.00 0.00 86 1016.6